Time,TemperatureF,DewpointF,PressureIn,WindDirection,WindDirectionDegrees,WindSpeedMPH,WindSpeedGustMPH,Humidity,HourlyPrecipIn,Conditions,Clouds,dailyrainin,SoftwareType,DateUTC
2013-01-04 00:00:00,48.7,39.8,30.52,SW,219,0.0,0.0,71,0.00,CLR,,0.00,WeatherDisplay:10.37,2013-01-03 23:00:00,
2013-01-04 00:05:00,48.7,39.8,30.52,South,183,0.0,0.0,71,0.00,CLR,,0.00,WeatherDisplay:10.37,2013-01-03 23:05:00,
2013-01-04 00:10:00,48.6,39.9,30.52,SW,228,0.0,1.0,72,0.00,CLR,,0.00,WeatherDisplay:10.37,2013-01-03 23:10:00,
2013-01-04 00:15:00,48.4,39.8,30.52,West,270,0.0,1.0,72,0.00,CLR,,0.00,WeatherDisplay:10.37,2013-01-03 23:15:00,
2013-01-04 00:20:00,48.4,39.8,30.52,West,270,0.0,0.0,72,0.00,CLR,,0.00,WeatherDisplay:10.37,2013-01-03 23:20:00,
2013-01-04 00:25:00,48.4,39.8,30.52,East,90,0.0,0.0,72,0.00,CLR,,0.00,WeatherDisplay:10.37,2013-01-03 23:25:00,
2013-01-04 00:30:00,48.2,39.6,30.52,West,270,0.0,0.0,72,0.00,CLR,,0.00,WeatherDisplay:10.37,2013-01-03 23:30:00,
2013-01-04 00:35:00,48.2,39.6,30.52,West,266,0.0,0.0,72,0.00,CLR,,0.00,WeatherDisplay:10.37,2013-01-03 23:35:00,
2013-01-04 00:40:00,48.2,39.6,30.51,WSW,239,0.0,1.0,72,0.00,CLR,,0.00,WeatherDisplay:10.37,2013-01-03 23:40:00,
2013-01-04 00:45:00,48.2,39.6,30.51,SSW,206,0.0,2.0,72,0.00,CLR,,0.00,WeatherDisplay:10.37,2013-01-03 23:45:00,
2013-01-04 00:50:00,48.2,39.9,30.51,SW,230,0.0,2.0,73,0.00,CLR,,0.00,WeatherDisplay:10.37,2013-01-03 23:50:00,
2013-01-04 00:55:00,48.2,39.9,30.51,WSW,243,0.0,0.0,73,0.00,CLR,,0.00,WeatherDisplay:10.37,2013-01-03 23:55:00,
2013-01-04 01:00:00,48.0,39.8,30.51,SW,225,0.0,0.0,73,0.00,CLR,,0.00,WeatherDisplay:10.37,2013-01-04 00:00:00,
2013-01-04 01:05:00,48.0,39.8,30.51,SW,225,0.0,0.0,73,0.00,CLR,,0.00,WeatherDisplay:10.37,2013-01-04 00:05:00,
2013-01-04 01:10:00,48.2,39.9,30.51,SW,221,0.0,0.0,73,0.00,CLR,,0.00,WeatherDisplay:10.37,2013-01-04 00:10:00,
2013-01-04 01:15:00,48.2,39.9,30.51,SSW,206,0.0,0.0,73,0.00,CLR,,0.00,WeatherDisplay:10.37,2013-01-04 00:15:00,
2013-01-04 01:20:00,48.0,39.8,30.51,SW,234,0.0,0.0,73,0.00,CLR,,0.00,WeatherDisplay:10.37,2013-01-04 00:20:00,
2013-01-04 01:25:00,47.8,39.6,30.51,West,259,1.0,2.0,73,0.00,CLR,,0.00,WeatherDisplay:10.37,2013-01-04 00:25:00,
2013-01-04 01:30:00,48.0,39.8,30.51,WSW,251,0.0,2.0,73,0.00,CLR,,0.00,WeatherDisplay:10.37,2013-01-04 00:30:00,
2013-01-04 01:35:00,48.0,40.1,30.52,SW,223,0.0,2.0,74,0.00,CLR,,0.00,WeatherDisplay:10.37,2013-01-04 00:35:00,
2013-01-04 01:40:00,48.2,40.3,30.51,SW,218,1.0,2.0,74,0.00,CLR,,0.00,WeatherDisplay:10.37,2013-01-04 00:40:00,
2013-01-04 01:45:00,48.6,40.6,30.51,WSW,255,0.0,2.0,74,0.00,CLR,,0.00,WeatherDisplay:10.37,2013-01-04 00:45:00,
2013-01-04 01:50:00,48.7,40.5,30.52,West,271,0.0,1.0,73,0.00,CLR,,0.00,WeatherDisplay:10.37,2013-01-04 00:50:00,
2013-01-04 01:55:00,48.7,40.5,30.51,South,177,0.0,0.0,73,0.00,CLR,,0.00,WeatherDisplay:10.37,2013-01-04 00:55:00,
2013-01-04 02:00:00,48.6,40.3,30.52,SE,138,1.0,2.0,73,0.00,CLR,,0.00,WeatherDisplay:10.37,2013-01-04 01:00:00,
2013-01-04 02:05:00,48.6,40.3,30.52,SSW,201,0.0,2.0,73,0.00,CLR,,0.00,WeatherDisplay:10.37,2013-01-04 01:05:00,
2013-01-04 02:10:00,48.9,40.6,30.52,West,270,0.0,2.0,73,0.00,CLR,,0.00,WeatherDisplay:10.37,2013-01-04 01:10:00,
2013-01-04 02:15:00,49.1,40.8,30.52,West,270,0.0,2.0,73,0.00,CLR,,0.00,WeatherDisplay:10.37,2013-01-04 01:15:00,
2013-01-04 02:20:00,49.3,41.0,30.52,West,270,0.0,0.0,73,0.00,CLR,,0.00,WeatherDisplay:10.37,2013-01-04 01:20:00,
2013-01-04 02:25:00,49.3,41.0,30.52,West,270,0.0,1.0,73,0.00,CLR,,0.00,WeatherDisplay:10.37,2013-01-04 01:25:00,
2013-01-04 02:30:00,49.5,40.8,30.52,West,266,0.0,1.0,72,0.00,CLR,,0.00,WeatherDisplay:10.37,2013-01-04 01:30:00,
2013-01-04 02:35:00,49.6,41.0,30.52,WSW,239,0.0,0.0,72,0.00,CLR,,0.00,WeatherDisplay:10.37,2013-01-04 01:35:00,
2013-01-04 02:40:00,50.0,41.7,30.52,SSE,162,0.0,1.0,73,0.00,CLR,,0.00,WeatherDisplay:10.37,2013-01-04 01:40:00,
2013-01-04 02:45:00,50.4,42.0,30.52,SSE,154,0.0,1.0,73,0.00,CLR,,0.00,WeatherDisplay:10.37,2013-01-04 01:45:00,
2013-01-04 02:50:00,50.7,42.4,30.52,South,180,0.0,0.0,73,0.00,CLR,,0.00,WeatherDisplay:10.37,2013-01-04 01:50:00,
2013-01-04 02:55:00,50.7,42.0,30.52,South,180,0.0,0.0,72,0.00,CLR,,0.00,WeatherDisplay:10.37,2013-01-04 01:55:00,
2013-01-04 03:00:00,51.3,42.5,30.52,South,180,0.0,0.0,72,0.00,CLR,,0.00,WeatherDisplay:10.37,2013-01-04 02:00:00,
2013-01-04 03:05:00,51.4,42.7,30.51,South,180,0.0,0.0,72,0.00,CLR,,0.00,WeatherDisplay:10.37,2013-01-04 02:05:00,
2013-01-04 03:10:00,51.6,42.9,30.52,South,180,0.0,0.0,72,0.00,CLR,,0.00,WeatherDisplay:10.37,2013-01-04 02:10:00,
2013-01-04 03:15:00,52.0,43.2,30.51,South,180,0.0,0.0,72,0.00,CLR,,0.00,WeatherDisplay:10.37,2013-01-04 02:15:00,
2013-01-04 03:20:00,52.3,43.2,30.51,South,180,0.0,0.0,71,0.00,CLR,,0.00,WeatherDisplay:10.37,2013-01-04 02:20:00,
2013-01-04 03:25:00,52.7,43.6,30.52,South,180,0.0,0.0,71,0.00,CLR,,0.00,WeatherDisplay:10.37,2013-01-04 02:25:00,
2013-01-04 03:30:00,52.9,43.7,30.51,South,180,0.0,0.0,71,0.00,CLR,,0.00,WeatherDisplay:10.37,2013-01-04 02:30:00,
2013-01-04 03:35:00,53.2,44.1,30.51,South,180,0.0,0.0,71,0.00,CLR,,0.00,WeatherDisplay:10.37,2013-01-04 02:35:00,
2013-01-04 03:40:00,53.4,43.9,30.51,South,180,0.0,0.0,70,0.00,CLR,,0.00,WeatherDisplay:10.37,2013-01-04 02:40:00,
2013-01-04 03:45:00,53.6,44.0,30.52,South,180,0.0,0.0,70,0.00,CLR,,0.00,WeatherDisplay:10.37,2013-01-04 02:45:00,
2013-01-04 03:50:00,54.1,44.2,30.52,South,184,0.0,1.0,69,0.00,CLR,,0.00,WeatherDisplay:10.37,2013-01-04 02:50:00,
2013-01-04 03:55:00,54.1,44.2,30.52,SSW,202,0.0,1.0,69,0.00,CLR,,0.00,WeatherDisplay:10.37,2013-01-04 02:55:00,
2013-01-04 04:00:00,54.9,44.5,30.51,SSW,194,0.0,2.0,68,0.00,CLR,,0.00,WeatherDisplay:10.37,2013-01-04 03:00:00,
2013-01-04 04:05:00,55.2,44.4,30.51,SSE,148,0.0,2.0,67,0.00,CLR,,0.00,WeatherDisplay:10.37,2013-01-04 03:05:00,
2013-01-04 04:10:00,55.6,44.4,30.52,East,79,0.0,2.0,66,0.00,CLR,,0.00,WeatherDisplay:10.37,2013-01-04 03:10:00,
2013-01-04 04:15:00,55.9,44.3,30.52,NE,51,0.0,1.0,65,0.00,CLR,,0.00,WeatherDisplay:10.37,2013-01-04 03:15:00,
2013-01-04 04:20:00,56.1,44.5,30.52,East,98,0.0,1.0,65,0.00,CLR,,0.00,WeatherDisplay:10.37,2013-01-04 03:20:00,
2013-01-04 04:25:00,56.3,44.7,30.52,SSW,209,1.0,2.0,65,0.00,CLR,,0.00,WeatherDisplay:10.37,2013-01-04 03:25:00,
2013-01-04 04:30:00,56.7,44.6,30.51,SW,227,0.0,2.0,64,0.00,CLR,,0.00,WeatherDisplay:10.37,2013-01-04 03:30:00,
2013-01-04 04:35:00,56.8,44.8,30.51,SSE,149,1.0,2.0,64,0.00,CLR,,0.00,WeatherDisplay:10.37,2013-01-04 03:35:00,
2013-01-04 04:40:00,57.0,44.1,30.51,SE,145,1.0,2.0,62,0.00,CLR,,0.00,WeatherDisplay:10.37,2013-01-04 03:40:00,
2013-01-04 04:45:00,57.2,43.4,30.50,West,281,2.0,6.0,60,0.00,CLR,,0.00,WeatherDisplay:10.37,2013-01-04 03:45:00,
2013-01-04 04:50:00,57.2,43.4,30.50,West,272,2.0,6.0,60,0.00,CLR,,0.00,WeatherDisplay:10.37,2013-01-04 03:50:00,
2013-01-04 04:55:00,57.4,43.6,30.50,WNW,301,2.0,5.0,60,0.00,CLR,,0.00,WeatherDisplay:10.37,2013-01-04 03:55:00,
2013-01-04 05:00:00,57.6,43.3,30.50,NNW,335,2.0,5.0,59,0.00,CLR,,0.00,WeatherDisplay:10.37,2013-01-04 04:00:00,
2013-01-04 05:05:00,57.9,43.7,30.50,NW,320,1.0,4.0,59,0.00,CLR,,0.00,WeatherDisplay:10.37,2013-01-04 04:05:00,
2013-01-04 05:10:00,58.3,44.0,30.50,WNW,283,1.0,3.0,59,0.00,CLR,,0.00,WeatherDisplay:10.37,2013-01-04 04:10:00,
2013-01-04 05:15:00,58.3,43.6,30.51,West,275,3.0,5.0,58,0.00,CLR,,0.00,WeatherDisplay:10.37,2013-01-04 04:15:00,
2013-01-04 05:20:00,58.3,43.6,30.50,NNW,329,1.0,5.0,58,0.00,CLR,,0.00,WeatherDisplay:10.37,2013-01-04 04:20:00,
2013-01-04 05:25:00,58.1,43.4,30.50,NNW,335,1.0,4.0,58,0.00,CLR,,0.00,WeatherDisplay:10.37,2013-01-04 04:25:00,
2013-01-04 05:30:00,57.9,43.7,30.51,West,267,0.0,4.0,59,0.00,CLR,,0.00,WeatherDisplay:10.37,2013-01-04 04:30:00,
2013-01-04 05:35:00,57.9,43.7,30.50,WNW,295,3.0,5.0,59,0.00,CLR,,0.00,WeatherDisplay:10.37,2013-01-04 04:35:00,
2013-01-04 05:40:00,57.7,43.9,30.50,NW,320,1.0,5.0,60,0.00,CLR,,0.00,WeatherDisplay:10.37,2013-01-04 04:40:00,
2013-01-04 05:45:00,57.6,43.8,30.50,WNW,289,1.0,4.0,60,0.00,CLR,,0.00,WeatherDisplay:10.37,2013-01-04 04:45:00,
2013-01-04 05:50:00,57.4,43.6,30.50,NW,304,1.0,4.0,60,0.00,CLR,,0.00,WeatherDisplay:10.37,2013-01-04 04:50:00,
2013-01-04 05:55:00,57.4,43.6,30.49,NNW,327,1.0,2.0,60,0.00,CLR,,0.00,WeatherDisplay:10.37,2013-01-04 04:55:00,
2013-01-04 06:00:00,57.6,43.8,30.49,West,275,1.0,2.0,60,0.00,CLR,,0.00,WeatherDisplay:10.37,2013-01-04 05:00:00,
2013-01-04 06:05:00,57.6,43.8,30.49,WNW,293,2.0,5.0,60,0.00,CLR,,0.00,WeatherDisplay:10.37,2013-01-04 05:05:00,
2013-01-04 06:10:00,57.7,44.4,30.49,SW,234,1.0,5.0,61,0.00,CLR,,0.00,WeatherDisplay:10.37,2013-01-04 05:10:00,
2013-01-04 06:15:00,57.9,44.5,30.49,West,278,0.0,2.0,61,0.00,CLR,,0.00,WeatherDisplay:10.37,2013-01-04 05:15:00,
2013-01-04 06:20:00,57.9,44.5,30.48,WNW,296,1.0,3.0,61,0.00,CLR,,0.00,WeatherDisplay:10.37,2013-01-04 05:20:00,
2013-01-04 06:25:00,57.7,44.4,30.48,SSW,212,1.0,3.0,61,0.00,CLR,,0.00,WeatherDisplay:10.37,2013-01-04 05:25:00,
2013-01-04 06:30:00,57.6,44.6,30.48,West,273,1.0,3.0,62,0.00,CLR,,0.00,WeatherDisplay:10.37,2013-01-04 05:30:00,
2013-01-04 06:35:00,57.4,44.5,30.48,NW,315,2.0,4.0,62,0.00,CLR,,0.00,WeatherDisplay:10.37,2013-01-04 05:35:00,
2013-01-04 06:40:00,57.2,44.3,30.47,NW,317,1.0,4.0,62,0.00,CLR,,0.00,WeatherDisplay:10.37,2013-01-04 05:40:00,
2013-01-04 06:45:00,57.2,44.3,30.47,NW,321,1.0,4.0,62,0.00,CLR,,0.00,WeatherDisplay:10.37,2013-01-04 05:45:00,
2013-01-04 06:50:00,57.4,44.5,30.46,WNW,297,0.0,4.0,62,0.00,CLR,,0.00,WeatherDisplay:10.37,2013-01-04 05:50:00,
2013-01-04 06:55:00,57.6,44.6,30.46,West,273,1.0,2.0,62,0.00,CLR,,0.00,WeatherDisplay:10.37,2013-01-04 05:55:00,
2013-01-04 07:00:00,57.6,44.6,30.46,NW,313,1.0,4.0,62,0.00,CLR,,0.00,WeatherDisplay:10.37,2013-01-04 06:00:00,
2013-01-04 07:05:00,57.6,44.6,30.46,NNE,20,1.0,4.0,62,0.00,CLR,,0.00,WeatherDisplay:10.37,2013-01-04 06:05:00,
2013-01-04 07:10:00,57.9,45.0,30.46,North,4,1.0,4.0,62,0.00,CLR,,0.00,WeatherDisplay:10.37,2013-01-04 06:10:00,
2013-01-04 07:15:00,57.9,45.0,30.46,NNW,333,1.0,4.0,62,0.00,CLR,,0.00,WeatherDisplay:10.37,2013-01-04 06:15:00,
2013-01-04 07:20:00,58.1,45.1,30.45,NW,318,1.0,3.0,62,0.00,CLR,,0.00,WeatherDisplay:10.37,2013-01-04 06:20:00,
2013-01-04 07:25:00,58.3,45.3,30.45,North,351,0.0,2.0,62,0.00,CLR,,0.00,WeatherDisplay:10.37,2013-01-04 06:25:00,
2013-01-04 07:30:00,58.3,45.3,30.45,NE,45,1.0,3.0,62,0.00,CLR,,0.00,WeatherDisplay:10.37,2013-01-04 06:30:00,
2013-01-04 07:35:00,58.3,45.3,30.45,NE,45,1.0,4.0,62,0.00,CLR,,0.00,WeatherDisplay:10.37,2013-01-04 06:35:00,
2013-01-04 08:40:00,64.8,46.2,30.44,NW,307,2.0,4.0,51,0.00,CLR,,0.00,WeatherDisplay:10.37,2013-01-04 07:40:00,
2013-01-04 08:45:00,62.8,44.9,30.44,West,266,1.0,4.0,52,0.00,CLR,,0.00,WeatherDisplay:10.37,2013-01-04 07:45:00,
2013-01-04 08:50:00,61.2,44.9,30.44,WNW,302,1.0,3.0,55,0.00,CLR,,0.00,WeatherDisplay:10.37,2013-01-04 07:50:00,
2013-01-04 08:55:00,60.1,44.3,30.44,North,0,1.0,2.0,56,0.00,CLR,,0.00,WeatherDisplay:10.37,2013-01-04 07:55:00,
2013-01-04 09:00:00,59.5,44.7,30.44,NNE,13,1.0,3.0,58,0.00,CLR,,0.00,WeatherDisplay:10.37,2013-01-04 08:00:00,
2013-01-04 09:05:00,59.2,44.9,30.44,ESE,119,1.0,3.0,59,0.00,CLR,,0.00,WeatherDisplay:10.37,2013-01-04 08:05:00,
2013-01-04 09:10:00,59.0,44.7,30.43,WSW,253,1.0,3.0,59,0.00,CLR,,0.00,WeatherDisplay:10.37,2013-01-04 08:10:00,
2013-01-04 09:15:00,58.8,45.0,30.43,NW,305,1.0,4.0,60,0.00,CLR,,0.00,WeatherDisplay:10.37,2013-01-04 08:15:00,
2013-01-04 09:20:00,58.6,44.8,30.43,NNW,330,1.0,4.0,60,0.00,CLR,,0.00,WeatherDisplay:10.37,2013-01-04 08:20:00,
2013-01-04 09:25:00,58.5,45.1,30.44,NNW,328,1.0,4.0,61,0.00,CLR,,0.00,WeatherDisplay:10.37,2013-01-04 08:25:00,
2013-01-04 09:30:00,58.3,44.9,30.44,North,353,1.0,3.0,61,0.00,CLR,,0.00,WeatherDisplay:10.37,2013-01-04 08:30:00,
2013-01-04 09:35:00,58.3,44.9,30.44,ENE,59,1.0,2.0,61,0.00,CLR,,0.00,WeatherDisplay:10.37,2013-01-04 08:35:00,
2013-01-04 09:40:00,58.1,45.1,30.43,NNE,24,0.0,4.0,62,0.00,CLR,,0.00,WeatherDisplay:10.37,2013-01-04 08:40:00,
2013-01-04 09:45:00,58.1,45.1,30.44,NNE,21,1.0,4.0,62,0.00,CLR,,0.00,WeatherDisplay:10.37,2013-01-04 08:45:00,
2013-01-04 09:50:00,57.7,44.8,30.44,NNW,340,2.0,4.0,62,0.00,CLR,,0.00,WeatherDisplay:10.37,2013-01-04 08:50:00,
2013-01-04 13:40:00,58.3,45.3,30.45,NE,45,3.5,3.5,62,0.00,CLR,,0.00,WeatherDisplay:10.37,2013-01-04 12:40:00,
2013-01-04 13:45:00,58.1,45.1,30.45,SW,225,4.6,4.6,62,0.00,CLR,,0.00,WeatherDisplay:10.37,2013-01-04 12:45:00,
2013-01-04 13:50:00,57.9,45.0,30.45,NW,315,3.5,3.5,62,0.00,CLR,,0.00,WeatherDisplay:10.37,2013-01-04 12:50:00,
2013-01-04 13:55:00,58.1,45.1,30.45,North,0,3.5,3.5,62,0.00,CLR,,0.00,WeatherDisplay:10.37,2013-01-04 12:55:00,
2013-01-04 14:01:00,58.8,46.2,30.45,North,0,3.5,0.0,63,0.00,CLR,,0.00,WeatherDisplay:10.37,2013-01-04 13:01:00,
2013-01-04 14:06:00,61.0,47.0,30.45,East,90,2.3,2.3,60,0.00,CLR,,0.00,WeatherDisplay:10.37,2013-01-04 13:06:00,
2013-01-04 14:11:00,62.4,47.0,30.45,North,0,3.5,3.5,57,0.00,CLR,,0.00,WeatherDisplay:10.37,2013-01-04 13:11:00,
2013-01-04 14:16:00,63.5,47.5,30.44,SE,135,1.2,0.0,56,0.00,CLR,,0.00,WeatherDisplay:10.37,2013-01-04 13:16:00,
2013-01-04 14:21:00,64.2,46.7,30.44,NW,315,3.5,3.5,53,0.00,CLR,,0.00,WeatherDisplay:10.37,2013-01-04 13:21:00,
2013-01-04 14:26:00,64.4,47.4,30.44,NW,315,1.2,0.0,54,0.00,CLR,,0.00,WeatherDisplay:10.37,2013-01-04 13:26:00,
2013-01-04 14:31:00,64.6,46.6,30.44,NNW,338,3.5,3.5,52,0.00,CLR,,0.00,WeatherDisplay:10.37,2013-01-04 13:31:00,
2013-01-04 14:36:00,64.4,46.9,30.44,NW,315,1.2,0.0,53,0.00,CLR,,0.00,WeatherDisplay:10.37,2013-01-04 13:36:00,
2013-01-04 14:41:00,65.1,46.5,30.44,NW,315,3.5,3.5,51,0.00,CLR,,0.00,WeatherDisplay:10.37,2013-01-04 13:41:00,
2013-01-04 16:30:00,50.7,42.7,30.40,NW,313,0.0,0.0,74,0.00,CLR,,0.00,WeatherDisplay:10.37,2013-01-04 15:30:00,
2013-01-04 16:35:00,50.7,42.7,30.40,WSW,247,0.0,2.0,74,0.00,CLR,,0.00,WeatherDisplay:10.37,2013-01-04 15:35:00,
2013-01-04 16:40:00,50.7,42.7,30.40,West,275,0.0,2.0,74,0.00,CLR,,0.00,WeatherDisplay:10.37,2013-01-04 15:40:00,
2013-01-04 16:45:00,50.5,42.6,30.39,WNW,288,0.0,1.0,74,0.00,CLR,,0.00,WeatherDisplay:10.37,2013-01-04 15:45:00,
2013-01-04 16:50:00,50.7,42.7,30.39,West,276,0.0,1.0,74,0.00,CLR,,0.00,WeatherDisplay:10.37,2013-01-04 15:50:00,
2013-01-04 16:55:00,50.5,42.2,30.39,NW,315,0.0,0.0,73,0.00,CLR,,0.00,WeatherDisplay:10.37,2013-01-04 15:55:00,
2013-01-04 17:00:00,50.5,42.2,30.38,NW,304,0.0,0.0,73,0.00,CLR,,0.00,WeatherDisplay:10.37,2013-01-04 16:00:00,
2013-01-04 17:05:00,50.4,42.0,30.38,West,270,0.0,0.0,73,0.00,CLR,,0.00,WeatherDisplay:10.37,2013-01-04 16:05:00,
2013-01-04 17:10:00,50.4,42.0,30.38,West,264,0.0,0.0,73,0.00,CLR,,0.00,WeatherDisplay:10.37,2013-01-04 16:10:00,
2013-01-04 17:15:00,50.4,42.4,30.39,SW,220,0.0,0.0,74,0.00,CLR,,0.00,WeatherDisplay:10.37,2013-01-04 16:15:00,
2013-01-04 17:20:00,50.4,42.4,30.39,SSW,207,0.0,0.0,74,0.00,CLR,,0.00,WeatherDisplay:10.37,2013-01-04 16:20:00,
2013-01-04 17:25:00,50.2,42.2,30.39,SW,225,0.0,2.0,74,0.00,CLR,,0.00,WeatherDisplay:10.37,2013-01-04 16:25:00,
2013-01-04 17:30:00,50.0,42.0,30.39,SW,229,0.0,2.0,74,0.00,CLR,,0.00,WeatherDisplay:10.37,2013-01-04 16:30:00,
2013-01-04 17:35:00,50.0,42.0,30.39,WSW,257,0.0,2.0,74,0.00,CLR,,0.00,WeatherDisplay:10.37,2013-01-04 16:35:00,
2013-01-04 17:40:00,50.0,42.0,30.38,NW,323,0.0,0.0,74,0.00,CLR,,0.00,WeatherDisplay:10.37,2013-01-04 16:40:00,
2013-01-04 17:45:00,50.0,42.0,30.38,East,80,0.0,0.0,74,0.00,CLR,,0.00,WeatherDisplay:10.37,2013-01-04 16:45:00,
2013-01-04 17:50:00,49.8,41.9,30.38,SW,224,1.0,2.0,74,0.00,CLR,,0.00,WeatherDisplay:10.37,2013-01-04 16:50:00,
2013-01-04 17:55:00,49.6,41.7,30.37,West,270,0.0,2.0,74,0.00,CLR,,0.00,WeatherDisplay:10.37,2013-01-04 16:55:00,
2013-01-04 18:00:00,49.6,41.7,30.37,West,270,0.0,1.0,74,0.00,CLR,,0.00,WeatherDisplay:10.37,2013-01-04 17:00:00,
2013-01-04 18:05:00,49.6,41.7,30.37,West,267,1.0,2.0,74,0.00,CLR,,0.00,WeatherDisplay:10.37,2013-01-04 17:05:00,
2013-01-04 18:10:00,49.5,41.5,30.37,WSW,254,0.0,2.0,74,0.00,CLR,,0.00,WeatherDisplay:10.37,2013-01-04 17:10:00,
2013-01-04 18:15:00,49.5,41.5,30.37,WSW,258,0.0,0.0,74,0.00,CLR,,0.00,WeatherDisplay:10.37,2013-01-04 17:15:00,
2013-01-04 18:20:00,49.5,41.5,30.37,West,270,0.0,2.0,74,0.00,CLR,,0.00,WeatherDisplay:10.37,2013-01-04 17:20:00,
2013-01-04 18:25:00,49.6,41.7,30.37,West,270,0.0,2.0,74,0.00,CLR,,0.00,WeatherDisplay:10.37,2013-01-04 17:25:00,
2013-01-04 18:30:00,49.6,41.7,30.37,West,270,0.0,1.0,74,0.00,CLR,,0.00,WeatherDisplay:10.37,2013-01-04 17:30:00,
2013-01-04 18:35:00,49.5,41.5,30.37,West,270,0.0,0.0,74,0.00,CLR,,0.00,WeatherDisplay:10.37,2013-01-04 17:35:00,
2013-01-04 18:40:00,49.3,41.3,30.36,West,270,0.0,2.0,74,0.00,CLR,,0.00,WeatherDisplay:10.37,2013-01-04 17:40:00,
2013-01-04 18:45:00,49.3,41.3,30.36,West,270,0.0,2.0,74,0.00,CLR,,0.00,WeatherDisplay:10.37,2013-01-04 17:45:00,
2013-01-04 18:50:00,49.3,41.3,30.36,West,276,0.0,1.0,74,0.00,CLR,,0.00,WeatherDisplay:10.37,2013-01-04 17:50:00,
2013-01-04 18:55:00,49.3,41.3,30.36,NW,315,0.0,2.0,74,0.00,CLR,,0.00,WeatherDisplay:10.37,2013-01-04 17:55:00,
2013-01-04 19:00:00,49.3,41.3,30.35,NW,304,0.0,2.0,74,0.00,CLR,,0.00,WeatherDisplay:10.37,2013-01-04 18:00:00,
2013-01-04 19:05:00,49.1,41.2,30.35,West,270,0.0,1.0,74,0.00,CLR,,0.00,WeatherDisplay:10.37,2013-01-04 18:05:00,
2013-01-04 19:10:00,49.1,41.2,30.35,West,274,0.0,2.0,74,0.00,CLR,,0.00,WeatherDisplay:10.37,2013-01-04 18:10:00,
2013-01-04 19:15:00,49.1,41.2,30.34,WNW,292,0.0,2.0,74,0.00,CLR,,0.00,WeatherDisplay:10.37,2013-01-04 18:15:00,
2013-01-04 19:20:00,49.3,41.3,30.34,South,170,1.0,2.0,74,0.00,CLR,,0.00,WeatherDisplay:10.37,2013-01-04 18:20:00,
2013-01-04 19:25:00,49.1,41.2,30.34,SSW,201,0.0,2.0,74,0.00,CLR,,0.00,WeatherDisplay:10.37,2013-01-04 18:25:00,
2013-01-04 19:30:00,49.1,41.2,30.34,West,270,0.0,2.0,74,0.00,CLR,,0.00,WeatherDisplay:10.37,2013-01-04 18:30:00,
2013-01-04 19:35:00,48.7,40.8,30.34,West,270,0.0,2.0,74,0.00,CLR,,0.00,WeatherDisplay:10.37,2013-01-04 18:35:00,
2013-01-04 19:40:00,48.7,40.8,30.35,West,270,0.0,2.0,74,0.00,CLR,,0.00,WeatherDisplay:10.37,2013-01-04 18:40:00,
2013-01-04 19:45:00,48.7,40.8,30.34,West,270,0.0,2.0,74,0.00,CLR,,0.00,WeatherDisplay:10.37,2013-01-04 18:45:00,
2013-01-04 19:50:00,48.7,41.2,30.34,West,266,0.0,2.0,75,0.00,CLR,,0.00,WeatherDisplay:10.37,2013-01-04 18:50:00,
2013-01-04 19:51:00,53.2,44.1,30.42,West,270,4.6,0.0,71,0.00,CLR,,0.00,WeatherDisplay:10.37,2013-01-04 18:51:00,
2013-01-04 19:56:00,53.2,44.1,30.42,West,270,1.2,0.0,71,0.00,CLR,,0.00,WeatherDisplay:10.37,2013-01-04 18:56:00,
2013-01-04 20:01:00,53.1,43.9,30.42,West,270,1.2,0.0,71,0.00,CLR,,0.00,WeatherDisplay:10.37,2013-01-04 19:01:00,
2013-01-04 20:06:00,53.1,43.9,30.42,West,270,1.2,0.0,71,0.00,CLR,,0.00,WeatherDisplay:10.37,2013-01-04 19:06:00,
2013-01-04 20:11:00,52.9,43.7,30.42,SW,225,1.2,0.0,71,0.00,CLR,,0.00,WeatherDisplay:10.37,2013-01-04 19:11:00,
2013-01-04 20:16:00,52.7,43.9,30.42,NW,315,1.2,1.2,72,0.00,CLR,,0.00,WeatherDisplay:10.37,2013-01-04 19:16:00,
2013-01-04 20:21:00,52.5,43.4,30.42,West,270,2.3,0.0,71,0.00,CLR,,0.00,WeatherDisplay:10.37,2013-01-04 19:21:00,
2013-01-04 20:26:00,52.5,43.8,30.42,SW,225,2.3,0.0,72,0.00,CLR,,0.00,WeatherDisplay:10.37,2013-01-04 19:26:00,
2013-01-04 20:31:00,52.3,43.2,30.42,SW,225,0.0,0.0,71,0.00,CLR,,0.00,WeatherDisplay:10.37,2013-01-04 19:31:00,
2013-01-04 20:36:00,52.2,43.4,30.42,SW,225,0.0,0.0,72,0.00,CLR,,0.00,WeatherDisplay:10.37,2013-01-04 19:36:00,
2013-01-04 20:43:00,52.2,43.4,30.42,SW,225,0.0,0.0,72,0.00,CLR,,0.00,WeatherDisplay:10.37,2013-01-04 19:43:00,
2013-01-04 20:48:00,52.2,43.4,30.42,SW,225,0.0,0.0,72,0.00,CLR,,0.00,WeatherDisplay:10.37,2013-01-04 19:48:00,
2013-01-04 20:53:00,52.0,43.2,30.42,West,270,0.0,0.0,72,0.00,CLR,,0.00,WeatherDisplay:10.37,2013-01-04 19:53:00,
2013-01-04 20:58:00,51.8,43.1,30.42,West,270,1.2,0.0,72,0.00,CLR,,0.00,WeatherDisplay:10.37,2013-01-04 19:58:00,
2013-01-04 21:03:00,51.8,43.1,30.41,West,270,1.2,0.0,72,0.00,CLR,,0.00,WeatherDisplay:10.37,2013-01-04 20:03:00,
2013-01-04 21:08:00,51.8,43.4,30.41,West,270,1.2,0.0,73,0.00,CLR,,0.00,WeatherDisplay:10.37,2013-01-04 20:08:00,
2013-01-04 21:13:00,51.8,43.4,30.41,NW,315,0.0,0.0,73,0.00,CLR,,0.00,WeatherDisplay:10.37,2013-01-04 20:13:00,
2013-01-04 21:18:00,51.6,43.2,30.41,South,180,0.0,0.0,73,0.00,CLR,,0.00,WeatherDisplay:10.37,2013-01-04 20:18:00,
2013-01-04 21:23:00,51.6,43.2,30.41,SW,225,1.2,1.2,73,0.00,CLR,,0.00,WeatherDisplay:10.37,2013-01-04 20:23:00,
2013-01-04 21:28:00,51.4,43.1,30.41,WNW,292,1.2,0.0,73,0.00,CLR,,0.00,WeatherDisplay:10.37,2013-01-04 20:28:00,
2013-01-04 21:33:00,51.4,43.1,30.41,NW,315,1.2,0.0,73,0.00,CLR,,0.00,WeatherDisplay:10.37,2013-01-04 20:33:00,
2013-01-04 21:38:00,51.3,42.9,30.40,West,270,1.2,0.0,73,0.00,CLR,,0.00,WeatherDisplay:10.37,2013-01-04 20:38:00,
2013-01-04 21:43:00,51.3,42.9,30.40,West,270,0.0,0.0,73,0.00,CLR,,0.00,WeatherDisplay:10.37,2013-01-04 20:43:00,
2013-01-04 21:48:00,51.1,42.7,30.40,SW,225,1.2,1.2,73,0.00,CLR,,0.00,WeatherDisplay:10.37,2013-01-04 20:48:00,
2013-01-04 21:53:00,51.1,43.1,30.40,NW,315,1.2,0.0,74,0.00,CLR,,0.00,WeatherDisplay:10.37,2013-01-04 20:53:00,
2013-01-04 21:58:00,50.9,42.9,30.40,SW,225,1.2,0.0,74,0.00,CLR,,0.00,WeatherDisplay:10.37,2013-01-04 20:58:00,
2013-01-04 22:03:00,50.9,42.9,30.40,SW,225,1.2,0.0,74,0.00,CLR,,0.00,WeatherDisplay:10.37,2013-01-04 21:03:00,
2013-01-04 22:08:00,50.7,42.7,30.40,SW,225,1.2,0.0,74,0.00,CLR,,0.00,WeatherDisplay:10.37,2013-01-04 21:08:00,
2013-01-04 22:13:00,50.7,42.7,30.40,SW,225,0.7,0.0,74,0.00,CLR,,0.00,WeatherDisplay:10.37,2013-01-04 21:13:00,
2013-01-04 22:18:00,50.7,42.7,30.40,West,270,1.2,1.2,74,0.00,CLR,,0.00,WeatherDisplay:10.37,2013-01-04 21:18:00,
2013-01-04 22:23:00,50.7,42.7,30.40,West,270,0.0,0.0,74,0.00,CLR,,0.00,WeatherDisplay:10.37,2013-01-04 21:23:00,
2013-01-04 22:28:00,50.5,42.6,30.39,West,270,1.2,0.0,74,0.00,CLR,,0.00,WeatherDisplay:10.37,2013-01-04 21:28:00,
2013-01-04 22:33:00,50.7,42.7,30.39,North,0,0.0,0.0,74,0.00,CLR,,0.00,WeatherDisplay:10.37,2013-01-04 21:33:00,
2013-01-04 22:38:00,50.5,42.2,30.39,West,270,0.0,0.0,73,0.00,CLR,,0.00,WeatherDisplay:10.37,2013-01-04 21:38:00,